Regional Weather Roundup
Issued by NWS

Home | Current Version | Previous Version | Graphics & Text | Print | Product List | Glossary Off
Versions: 1 2 3 4 5 6 7 8 9 10 11 12 13 14 15 16 17 18 19 20 21 22 23 24 25 26 27 28 29 30 31 32 33 34 35 36 37 38 39 40 41 42 43 44 45 46 47 48 49 50

000
ASUS45 KTFX 270810
RWRMT
MONTANA REGIONAL WEATHER ROUNDUP
NATIONAL WEATHER SERVICE GREAT FALLS MT
200 AM MDT WED MAY 27 2015

NOTE: "FAIR" INDICATES FEW OR NO CLOUDS BELOW 12000 FEET WITH NO
SIGNIFICANT WEATHER AND/OR OBSTRUCTIONS TO VISIBILITY.

MTZ001>007-043-270900-
WEST OF THE DIVIDE

CITY           SKY/WX    TMP DP  RH WIND       PRES   REMARKS
KALISPELL      PTSUNNY   47  44  90 W3        29.97R
MISSOULA       MOCLDY    48  45  89 SE5       30.03R
BUTTE          LGT RAIN  48  43  82 NE3       30.06S
MULLAN PASS    PTCLDY    44  39  82 SE3       30.04S
$$

MTZ008-052>055-270900-
SOUTHWEST MONTANA

CITY           SKY/WX    TMP DP  RH WIND       PRES   REMARKS
BOZEMAN        LGT RAIN  51  47  86 S7        30.04R FOG
DILLON         CLOUDY    49  45  86 CALM      30.03S
W YELLOWSTONE  CLOUDY    41  39  93 S3        30.09F
$$

MTZ009-010-012-014-046-048-049-054-270900-
EAST SLOPES AND CENTRAL MONTANA

CITY           SKY/WX    TMP DP  RH WIND       PRES   REMARKS
CUT BANK       PTCLDY    46  45  96 S5        30.00R
GREAT FALLS    MOCLDY    50  47  89 CALM      29.98S
MALMSTROM AFB  MOCLDY    52  49  89 W1        29.99R
HELENA         CLOUDY    56  43  61 NW9       30.01R
$$

MTZ011-013-016-021-045-047-050-051-270900-
NORTH CENTRAL MONTANA

CITY           SKY/WX    TMP DP  RH WIND       PRES   REMARKS
HAVRE          CLOUDY    57  51  80 SW8       29.94S
LEWISTOWN      PTCLDY    47  44  90 E5        29.98S
N BAR RANCH    PTSUNNY   48  45  87 W6        30.01S
$$

MTZ017>020-022>027-061-062-270900-
NORTHEAST MONTANA

CITY           SKY/WX    TMP DP  RH WIND       PRES   REMARKS
GLASGOW        MOCLDY    57  49  74 W8        29.89R
JORDAN           N/A     56  53  90 W3        29.91S
SIDNEY         PTCLDY    52  45  76 CALM      29.91S
WOLF POINT     MOCLDY    53  47  79 E5        29.88S
$$

MTZ028>42-056>058-270900-
SOUTHCENTRAL AND SOUTHEAST MONTANA

CITY           SKY/WX    TMP DP  RH WIND       PRES   REMARKS
BAKER          CLEAR     48  44  86 SE6       29.95S
BILLINGS       MOCLDY    53  49  86 CALM      29.96R
LIVINGSTON     MOCLDY    52  44  74 W20       29.98S
MILES CITY     MOCLDY    56  49  77 CALM      29.90S
$$

REGIONAL REPORTS...DAKOTAS

CITY           SKY/WX    TMP DP  RH WIND       PRES   REMARKS
WILLISTON      PTCLDY    56  45  66 CALM      29.90S
MINOT          CLEAR     60  45  57 SW10      29.87S
DICKINSON      CLEAR     51  43  74 SW9       29.93S
BEACH          PTSUNNY   46  46 100 SE8       29.95S
CROSBY         FAIR      57  46  67 SW10      29.89S
WATFORD CITY   FAIR      52  45  76 CALM      29.90S
BISMARCK       CLEAR     55  50  83 CALM      29.92S
GRAND FORKS    PTCLDY    60  47  61 NW8       29.79R
FARGO          CLEAR     55  50  83 W5        29.79S
BUFFALO SD       N/A     53  45  74 CALM      29.90R
RAPID CITY     PTCLDY    52  48  86 SE6       29.97F
$$

REGIONAL REPORTS...WYOMING/IDAHO/WASHINGTON

CITY           SKY/WX    TMP DP  RH WIND       PRES   REMARKS
GILLETTE       MOCLDY    51  48  89 CALM      29.99R
SHERIDAN       PTCLDY    47  45  93 S3        29.96F
BUFFALO WY     MOCLDY    50  46  86 SW3       30.00F
CODY           CLOUDY    52  46  82 CALM      29.99S
YELLOWSTONE LA   N/A     36  34  92 CALM      30.14S
IDAHO FALLS    PTCLDY    45  43  93 N8        30.05R
SALMON         CLOUDY    52  43  71 N5        30.01S
BOISE          PTCLDY    61  45  55 N5        29.93S
SPOKANE        PTCLDY    51  48  89 W3        29.98S
$$

REGIONAL REPORTS...ALBERTA

CITY           SKY/WX    TMP DP  RH WIND       PRES   REMARKS
EDMONTON       CLEAR     54  43  66 NW3       29.98F
CALGARY        MOCLDY    54  45  71 SW6       30.06S
LETHBRIDGE     MOCLDY    54  48  82 W16       30.01R
MEDICINE HAT   PTCLDY    61  46  59 W6        29.96R
$$

REGIONAL REPORTS...SASKATCHEWAN

CITY           SKY/WX    TMP DP  RH WIND       PRES   REMARKS
SWIFT CURRENT  PTCLDY    59  46  63 E10       29.92R
SASKATOON      CLEAR     50  43  76 NE12      30.01R
$$



USA.gov is the U.S. government's official web portal to all federal, state and local government web resources and services.